Погода в Хагатне

Гуам     13°28′21″N   144°45′11″E
темп.,
°C
ветер,
м/с
пор.,
м/с
влажн.,
%
обл.,
%
осадки,
мм/ч
давл.,
гПа
погр.,
м
13 августа, сб
сб1301:00+28вюв347727 0.0 1010310
04:00+27вюв457871 0.1 1009372
07:00+27вюв2380100 0.3 1010260
10:00+29в3371100 1.1 1011839
13:00+30вюв5569100 0.0 10101070
16:00+30вюв4570100 0.2 1009878
19:00+28вюв5676100 1.3 1010565
22:00+28вюв698199 9.7 1012508
14 августа, вс
вс1401:00+28вюв688092 1.1 1010642
04:00+27вюв578099 1.6 1009473
07:00+28вюв7978100 3.1 1011666
10:00+28вюв5777100 4.0 1012709
13:00+27ююв6878100 2.1 1011647
16:00+28ююв4575100 2.2 1010606
19:00+27ююв4580100 0.3 1012377
22:00+27вюв3480100 1.1 1013244
15 августа, пн
пн1501:00+26юв5680100 2.1 1012423
04:00+26юв2378100 2.2 1011266
07:00+27в3477100 0.0 1012303
10:00+29в5671100 0.0 1013993
13:00+30в5569100 0.1 10111120
16:00+29в667074 0.1 10101050
19:00+28в4677100 0.0 1010549
22:00+28в5880100 0.6 1012593
16 августа, вт
вт1601:00+27в5880100 0.0 1011569
04:00+27в57815 0.1 1010539
07:00+28всв58805 0.2 1012578
10:00+29в78746 0.9 10121064
13:00+30в787361 0.7 10101097
16:00+30всв787359 0.9 10081079
19:00+28в687899 0.1 1010749
22:00+28в698143 0.4 1011658
17 августа, ср
ср1701:00+28в687963 0.0 1010623
04:00+27в587898 0.3 1010612
07:00+28в687867 0.1 1011684
10:00+29в7875100 0.4 10111003
13:00+29вюв7875100 0.8 1010964
16:00+28юв6777100 3.1 1010794
19:00+27ююв5683100 3.0 1011461
22:00+26ююв4685100 7.3 1012289